{"data":{"norad_id":46073,"intl_designator":"2020-055AY","name":"STARLINK-1542","alt_names":[],"object_type":"PAYLOAD","status":"ACTIVE","operator":null,"country":"US","launch_date":"2020-08-07","launch_site_code":"AFETR","launch_vehicle":null,"mission":null,"orbit_class":"UNKNOWN","rcs_meters":null,"size_class":null,"mass_kg":null,"dimensions":null,"purposes":["comms"],"wikipedia_slug":null,"has_3d_model":false,"image_url":null,"decayed_at":null,"tle_current":{"epoch":"2026-09-19T17:20:59.379936Z","epoch_age_seconds":85377,"freshness":"FRESH","line1":"1 46073U 20055AY  26262.72290949 -.00000364  00000+0  42018-7 0  9997","line2":"2 46073  53.1587 281.7386 0001464  92.7434 267.3735 15.31694795338917","mean_motion":15.31694795,"eccentricity":0.0001464,"inclination_deg":53.1587,"raan_deg":281.7386,"arg_perigee_deg":92.7434,"mean_anomaly_deg":267.3735,"bstar":4.2018e-8,"rev_number":33891,"period_min":94.013507436382,"perigee_km":469.75283324011,"apogee_km":471.75818896736,"semimajor_km":6848.8925111037,"source":"CELESTRAK","updated_at":"2026-09-20T09:00:38.464702Z"}}}